Gambell, AK

8:29 PM AKDT on August 31, 2016 (GMT -0800)
Gambell

Weather History for PAGM - July, 2013

Change the Weather History Date:

Wednesday, July 17, 2013

  Actual Average Record
Temperature  
Mean Temperature 45 °F -  
Max Temperature 46 °F 48 °F 57 °F (2004)
Min Temperature 44 °F 42 °F 42 °F (2001)
Degree Days  
Heating Degree Days 20    
Moisture  
Dew Point 43 °F    
Average Humidity 91    
Maximum Humidity 93    
Minimum Humidity 87    
Precipitation  
Precipitation 0.00 in - - ()
Sea Level Pressure  
Sea Level Pressure 29.96 in    
Wind  
Wind Speed 18 mph (South)    
Max Wind Speed 22 mph    
Max Gust Speed 21 mph    
Visibility 2 miles    
Events      
Averages and records for this station are not official NWS values.
T = Trace of Precipitation, MM = Missing Value Source: NWS Daily Summary

Daily Weather History Graph

Daily Weather History Graph

Search for Another Location

Airport or City:

Trip Planner

Search our weather history database for the weather conditions in past years. The results will help you decide how hot, cold, wet, or windy it might be!

Date:

Astronomy

Jul. 17, 2013 Rise Set
Actual Time 5:53 AM AKDT 1:10 AM AKDT
Civil Twilight 4:05 AM AKDT 3:00 AM AKDT
Nautical Twilight Sun does not set Sun does not set
Astronomical Twilight Sun does not set Sun does not set
Moon 7:41 PM AKDT (7/17) 2:02 AM AKDT (7/17)
Length of Visible Light 22h 55m
Length of Day
19h 17m
Waxing Gibbous, 68% of the Moon is Illuminated
Jul 17
Waxing Gibbous
Jul 22
Full
Jul 29
Last Quarter
Aug 6
New
Aug 14
First Quarter

Hourly Weather History & Observations

Time (AKDT) Temp. Windchill Dew Point Humidity Pressure Visibility Wind Dir Wind Speed Gust Speed Precip Events Conditions
12:16 AM 44.6 °F 36.4 °F 41.0 °F 87% 29.94 in 3.0 mi SSW 20.7 mph - N/A   Overcast
12:36 AM 44.6 °F 36.9 °F 42.8 °F 93% 29.94 in 2.5 mi South 18.4 mph - N/A   Overcast
12:56 AM 44.6 °F 37.8 °F 41.0 °F 87% 29.94 in 4.0 mi South 15.0 mph 19.6 mph N/A   Overcast
1:16 AM 44.6 °F 37.4 °F 41.0 °F 87% 29.94 in 2.0 mi South 16.1 mph - N/A   Overcast
1:36 AM 44.6 °F 37.8 °F 42.8 °F 93% 29.94 in 5.0 mi South 15.0 mph - N/A   Overcast
1:56 AM 44.6 °F 37.2 °F 42.8 °F 93% 29.94 in 5.0 mi South 17.3 mph - N/A   Overcast
2:16 AM 44.6 °F 36.9 °F 42.8 °F 93% 29.94 in 0.8 mi South 18.4 mph - N/A   Overcast
2:36 AM 44.6 °F 36.6 °F 42.8 °F 93% 29.93 in 2.0 mi South 19.6 mph - N/A   Overcast
2:56 AM 44.6 °F 36.4 °F 42.8 °F 93% 29.93 in 5.0 mi South 20.7 mph - N/A   Overcast
3:16 AM 44.6 °F 36.4 °F 42.8 °F 93% 29.93 in 3.0 mi South 20.7 mph - N/A   Overcast
3:36 AM 44.6 °F 36.9 °F 42.8 °F 93% 29.93 in 2.0 mi South 18.4 mph - N/A   Overcast
3:56 AM 44.6 °F 36.4 °F 42.8 °F 93% 29.93 in 1.2 mi South 20.7 mph - N/A   Overcast
4:16 AM 44.6 °F 36.1 °F 42.8 °F 93% 29.93 in 2.0 mi South 21.9 mph - N/A   Overcast
4:36 AM 44.6 °F 36.4 °F 42.8 °F 93% 29.93 in 2.5 mi SSW 20.7 mph - N/A   Overcast
4:56 AM 44.6 °F 36.4 °F 41.0 °F 87% 29.93 in 2.5 mi SSW 20.7 mph - N/A   Overcast
5:16 AM 44.6 °F 37.2 °F 41.0 °F 87% 29.93 in 3.0 mi SSW 17.3 mph - N/A   Overcast
5:36 AM 44.6 °F 36.6 °F 42.8 °F 93% 29.93 in 2.0 mi SSW 19.6 mph - N/A   Overcast
5:56 AM 44.6 °F 36.6 °F 42.8 °F 93% 29.93 in 2.0 mi South 19.6 mph - N/A   Overcast
6:16 AM 44.6 °F 36.6 °F 42.8 °F 93% 29.92 in 2.0 mi South 19.6 mph - N/A   Overcast
6:36 AM 44.6 °F 36.6 °F 42.8 °F 93% 29.92 in 2.5 mi South 19.6 mph - N/A   Overcast
6:56 AM 44.6 °F 36.6 °F 42.8 °F 93% 29.92 in 3.0 mi South 19.6 mph - N/A   Overcast
7:16 AM 44.6 °F 36.9 °F 42.8 °F 93% 29.92 in 5.0 mi South 18.4 mph - N/A   Overcast
7:36 AM 44.6 °F 37.2 °F 42.8 °F 93% 29.92 in 2.5 mi South 17.3 mph - N/A   Overcast
7:56 AM 44.6 °F 37.2 °F 42.8 °F 93% 29.93 in 0.5 mi South 17.3 mph - N/A   Overcast
8:16 AM 44.6 °F 37.4 °F 42.8 °F 93% 29.92 in 0.2 mi South 16.1 mph - N/A   Overcast
8:36 AM 44.6 °F 36.4 °F 42.8 °F 93% 29.92 in 2.0 mi South 20.7 mph - N/A   Overcast
8:56 AM 44.6 °F 36.4 °F 42.8 °F 93% 29.93 in 1.5 mi South 20.7 mph - N/A   Overcast
9:16 AM 44.6 °F 36.9 °F 42.8 °F 93% 29.92 in 1.0 mi South 18.4 mph - N/A   Overcast
9:36 AM 44.6 °F 36.6 °F 42.8 °F 93% 29.93 in 0.5 mi South 19.6 mph - N/A   Overcast
9:56 AM 44.6 °F 37.4 °F 42.8 °F 93% 29.93 in 0.8 mi South 16.1 mph - N/A   Overcast
10:16 AM 44.6 °F 37.4 °F 42.8 °F 93% 29.93 in 0.8 mi South 16.1 mph - N/A   Overcast
10:36 AM 44.6 °F 36.6 °F 42.8 °F 93% 29.94 in 0.2 mi South 19.6 mph - N/A   Overcast
10:56 AM 44.6 °F 36.9 °F 42.8 °F 93% 29.94 in 0.2 mi South 18.4 mph - N/A   Overcast
11:16 AM 44.6 °F 37.2 °F 42.8 °F 93% 29.94 in 0.2 mi SSW 17.3 mph - N/A   Overcast
11:36 AM 44.6 °F 37.2 °F 42.8 °F 93% 29.95 in 0.2 mi SSW 17.3 mph - N/A   Overcast
11:56 AM 44.6 °F 36.6 °F 42.8 °F 93% 29.95 in 0.8 mi SSW 19.6 mph - N/A   Overcast
12:16 PM 44.6 °F 37.2 °F 42.8 °F 93% 29.96 in 0.5 mi SSW 17.3 mph - N/A   Overcast
12:36 PM 44.6 °F 37.4 °F 42.8 °F 93% 29.96 in 1.5 mi SSW 16.1 mph - N/A   Overcast
12:56 PM 44.6 °F 37.4 °F 42.8 °F 93% 29.96 in 2.5 mi South 16.1 mph - N/A   Overcast
1:16 PM 44.6 °F 37.4 °F 42.8 °F 93% 29.97 in 3.0 mi South 16.1 mph - N/A   Overcast
1:36 PM 44.6 °F 36.9 °F 42.8 °F 93% 29.97 in 0.8 mi SSW 18.4 mph - N/A   Overcast
1:56 PM 44.6 °F 37.2 °F 42.8 °F 93% 29.97 in 1.0 mi SSW 17.3 mph - N/A   Overcast
2:16 PM 44.6 °F 36.9 °F 42.8 °F 93% 29.97 in 1.0 mi South 18.4 mph - N/A   Overcast
2:36 PM 44.6 °F 37.2 °F 42.8 °F 93% 29.97 in 3.0 mi South 17.3 mph - N/A   Overcast
2:56 PM 46.4 °F 39.5 °F 42.8 °F 87% 29.97 in 2.5 mi South 17.3 mph - N/A   Overcast
3:16 PM 46.4 °F 39.5 °F 42.8 °F 87% 29.98 in 2.5 mi South 17.3 mph - N/A   Overcast
3:36 PM 46.4 °F 39.5 °F 42.8 °F 87% 29.98 in 2.5 mi South 17.3 mph - N/A   Overcast
3:56 PM 46.4 °F 39.8 °F 42.8 °F 87% 29.98 in 7.0 mi South 16.1 mph - N/A   Overcast
4:16 PM 46.4 °F 40.1 °F 42.8 °F 87% 29.98 in 3.0 mi South 15.0 mph - N/A   Overcast
4:36 PM 46.4 °F 40.1 °F 42.8 °F 87% 29.98 in 1.2 mi South 15.0 mph 20.7 mph N/A   Overcast
4:56 PM 46.4 °F 39.8 °F 42.8 °F 87% 29.98 in 5.0 mi South 16.1 mph - N/A   Overcast
5:16 PM 46.4 °F 40.7 °F 42.8 °F 87% 29.98 in 2.0 mi South 12.7 mph - N/A   Overcast
5:36 PM 46.4 °F 40.7 °F 42.8 °F 87% 29.98 in 1.2 mi South 12.7 mph - N/A   Overcast
5:56 PM 46.4 °F 40.4 °F 42.8 °F 87% 29.98 in 2.0 mi South 13.8 mph - N/A   Overcast
6:16 PM 46.4 °F 40.1 °F 42.8 °F 87% 29.98 in 1.2 mi South 15.0 mph - N/A   Overcast
6:36 PM 46.4 °F 39.8 °F 42.8 °F 87% 29.98 in 0.8 mi South 16.1 mph - N/A   Overcast
6:56 PM 46.4 °F 41.1 °F 42.8 °F 87% 29.99 in 1.2 mi South 11.5 mph - N/A   Overcast
7:16 PM 44.6 °F 38.8 °F 42.8 °F 93% 29.98 in 3.0 mi South 11.5 mph - N/A   Overcast
7:36 PM 46.4 °F 40.7 °F 42.8 °F 87% 29.98 in 8.0 mi South 12.7 mph - N/A   Overcast
7:56 PM 46.4 °F 39.8 °F 42.8 °F 87% 29.98 in 10.0 mi SSW 16.1 mph - N/A   Overcast
8:16 PM 46.4 °F 39.0 °F 42.8 °F 87% 29.98 in 8.0 mi SSW 19.6 mph - N/A   Overcast
8:36 PM 46.4 °F 39.8 °F 42.8 °F 87% 29.98 in 5.0 mi SSW 16.1 mph - N/A   Overcast
8:56 PM 46.4 °F 39.5 °F 42.8 °F 87% 29.99 in 3.0 mi SSW 17.3 mph - N/A   Overcast
9:16 PM 46.4 °F 40.1 °F 42.8 °F 87% 29.99 in 1.5 mi South 15.0 mph - N/A   Overcast
9:36 PM 44.6 °F 37.2 °F 42.8 °F 93% 29.99 in 0.8 mi South 17.3 mph - N/A   Overcast
9:56 PM 44.6 °F 37.2 °F 42.8 °F 93% 29.99 in 1.0 mi South 17.3 mph - N/A   Overcast
10:16 PM 44.6 °F 37.4 °F 42.8 °F 93% 29.99 in 0.8 mi South 16.1 mph - N/A   Overcast
10:36 PM 44.6 °F 38.1 °F 42.8 °F 93% 29.99 in 1.8 mi South 13.8 mph - N/A   Overcast
10:56 PM 44.6 °F 38.8 °F 42.8 °F 93% 29.99 in 1.2 mi South 11.5 mph - N/A   Overcast
11:16 PM 44.6 °F 38.4 °F 42.8 °F 93% 29.99 in 0.5 mi South 12.7 mph - N/A   Overcast
11:36 PM 44.6 °F 37.8 °F 42.8 °F 93% 29.99 in 0.8 mi South 15.0 mph - N/A   Overcast
11:56 PM 44.6 °F 37.4 °F 42.8 °F 93% 29.99 in 0.8 mi South 16.1 mph - N/A   Overcast